STARLINK-6115, 56123

Orbit data source: Space-Track

STARLINK-6115, 56123 is a payload satellite owned by SpaceX/Seattle (US) in LEO that was launched on Wed, 29 Mar 2023 UTC via an FALCON 9 launch vehicle from the Air Force Eastern Test Range (AFETR). Payload-class satellites include a variety of spacecraft equipped with specific instruments for various scientific and technological missions. These include communications satellites like Starlink; space stations such as the ISS; scientific satellites like the Hubble; Earth observation satellites from companies like Planet Labs, Umbra, and HawkEye 360; GPS; miniature CubeSats for education and research; and military/defense satellites.

Loading next visibility...
Identifier
56123, 2023-046AH
Orbit
LEO
Country
Flag of USUS
Related business
Manufacturer
SpaceX/Seattle
Mission
Operational Commercial Communications
Bus & Motor
STARLINK, Unknown motor
Mass
305 kg wet, ~290 kg dry
Launch date (UTC)
2023-03-29 (3 years ago)
Launch vehicle
FALCON 9
Launch site
Air Force Eastern Test Range (AFETR)
Object type
Payload
Rocket body
Debris
Shape & HBR
Box + 1 Pan, 10.1 m
Radar Cross Section
11.087 m², Large (>1 m²)

Expand to show TLE details & history
Last TLE update: 2 days ago

TLE from 2 days ago
0 STARLINK-6115
1 56123U 23046AH  26171.40701661  .00000203  00000-0  16917-4 0  9997
2 56123  43.0032 287.3906 0001392 267.8958  92.1734 15.27577936177908
Epoch: 2026-06-20T09:46Z
TLE epoch observation values (Epoch: 2026-06-20T09:46:06.235Z)
Latitude
-0.00002°
Longitude
-127.75749°
Altitude
482.867 km
Speed
7.626 km/s
True Right ascension
19h 09m 33s
True Declination
0° 00' 00"
Sunlit
Object was in full shadow at epoch
Visualization orbit readout
Latitude
Unknown
Longitude
Unknown
Altitude
Unknown
Speed
Unknown
Apparent Right ascension
Unknown
Apparent Declination
Unknown
Sunlit
N/A
Visualization observer readout
Local Sidereal Time
21:52:10
Azimuth
Unknown
Elevation
Unknown
Doppler factor
Unknown
Orbital elements
Apogee altitude
485.955 km
Perigee altitude
484.045 km
Semi-major axis
6,863.137 km
Eccentricity
0.00014
Inclination
43.0032°
RAAN
287.3906°
Arg. of periapsis
267.8958°
True anomaly
92.18934°
Mean anomaly
92.1734°
Eccentric anomaly
92.18137°
Mean motion
3.81733 °/min
Orbital period
94.31 mins
BSTAR
0.000016917
Loading maneuver chart data...
Computing Atmospheric mass density...

Documentation

Showing up to 5 results
|